FCG306 SBFZ-SBRF

Flight info

Callsign FCG306
Flight time 1h 1m
Altitude 35000
Route UTMAR UZ70 UGTUN
Aircraft B738/M-SDE2E3FGHIRWXY/LB1

Departure

Time 2026-05-04 15:54
Airport Pinto Martins International Airport (SBFZ)

Arrival

Time 2026-05-04 16:55
Airport Recife/Guararapes - Gilberto Freyre International Airport (SBRF)
Time Latitude Longitude Altitude Speed Heading
2026-05-04 15:28 -3.77789 -38.53560 91 ft 0 kts 194°
2026-05-04 15:43 -3.77776 -38.53557 91 ft 4 kts 194°
2026-05-04 15:43 -3.77749 -38.53550 90 ft 4 kts 194°
2026-05-04 15:43 -3.77727 -38.53543 92 ft 4 kts 215°
2026-05-04 15:44 -3.77715 -38.53525 90 ft 4 kts 276°
2026-05-04 15:44 -3.77719 -38.53507 89 ft 1 kts 284°
2026-05-04 15:44 -3.77720 -38.53504 90 ft 1 kts 284°
2026-05-04 15:45 -3.77719 -38.53506 89 ft 1 kts 284°
2026-05-04 15:45 -3.77718 -38.53511 89 ft 1 kts 284°
2026-05-04 15:45 -3.77718 -38.53512 89 ft 0 kts 284°
2026-05-04 15:47 -3.77717 -38.53514 90 ft 2 kts 284°
2026-05-04 15:47 -3.77707 -38.53552 90 ft 9 kts 284°
2026-05-04 15:47 -3.77690 -38.53618 91 ft 10 kts 285°
2026-05-04 15:48 -3.77671 -38.53683 92 ft 10 kts 285°
2026-05-04 15:48 -3.77654 -38.53747 92 ft 9 kts 284°
2026-05-04 15:48 -3.77622 -38.53870 93 ft 9 kts 284°
2026-05-04 15:49 -3.77606 -38.53932 94 ft 11 kts 285°
2026-05-04 15:49 -3.77585 -38.54007 94 ft 11 kts 285°
2026-05-04 15:49 -3.77566 -38.54080 95 ft 11 kts 284°
2026-05-04 15:49 -3.77547 -38.54152 96 ft 11 kts 284°
2026-05-04 15:50 -3.77529 -38.54222 95 ft 10 kts 284°
2026-05-04 15:50 -3.77510 -38.54294 94 ft 11 kts 284°
2026-05-04 15:50 -3.77489 -38.54374 94 ft 12 kts 284°
2026-05-04 15:50 -3.77471 -38.54457 92 ft 12 kts 284°
2026-05-04 15:51 -3.77444 -38.54499 94 ft 3 kts 335°
2026-05-04 15:51 -3.77421 -38.54504 93 ft 4 kts 359°
2026-05-04 15:51 -3.77397 -38.54502 93 ft 4 kts 10°
2026-05-04 15:51 -3.77394 -38.54501 93 ft 0 kts 19°
2026-05-04 15:52 -3.77364 -38.54490 94 ft 7 kts 18°
2026-05-04 15:52 -3.77319 -38.54471 94 ft 7 kts 44°
2026-05-04 15:53 -3.77316 -38.54451 95 ft 0 kts 105°
2026-05-04 15:53 -3.77328 -38.54409 95 ft 29 kts 105°
2026-05-04 15:53 -3.77442 -38.53975 96 ft 98 kts 104°
2026-05-04 15:54 -3.77672 -38.53126 100 ft 150 kts 104°
2026-05-04 15:54 -3.77957 -38.52064 545 ft 165 kts 106°
2026-05-04 15:54 -3.78262 -38.50965 1271 ft 160 kts 108°
2026-05-04 15:54 -3.78577 -38.49862 1884 ft 169 kts 107°
2026-05-04 15:55 -3.78990 -38.48655 2172 ft 197 kts 120°
2026-05-04 15:55 -3.80068 -38.47761 2389 ft 218 kts 156°
2026-05-04 15:55 -3.81527 -38.47196 2801 ft 230 kts 158°
2026-05-04 15:55 -3.83031 -38.46598 3327 ft 233 kts 158°
2026-05-04 15:56 -3.84531 -38.45987 3876 ft 233 kts 157°
2026-05-04 15:56 -3.86048 -38.45357 4375 ft 238 kts 156°
2026-05-04 15:56 -3.87603 -38.44700 4736 ft 251 kts 155°
2026-05-04 15:56 -3.89253 -38.43994 5215 ft 261 kts 155°
2026-05-04 15:57 -3.90923 -38.43274 5775 ft 262 kts 155°
2026-05-04 15:57 -3.92605 -38.42547 5967 ft 265 kts 155°
2026-05-04 15:57 -3.94291 -38.41817 5969 ft 268 kts 155°
2026-05-04 15:57 -3.96037 -38.41179 5993 ft 269 kts 164°
2026-05-04 15:58 -3.97889 -38.40789 6552 ft 273 kts 167°
2026-05-04 15:58 -3.99768 -38.40450 7334 ft 275 kts 168°
2026-05-04 15:58 -4.01670 -38.40110 8087 ft 280 kts 167°
2026-05-04 15:58 -4.03607 -38.39758 8857 ft 286 kts 167°
2026-05-04 15:59 -4.05584 -38.39392 9620 ft 292 kts 167°
2026-05-04 15:59 -4.07600 -38.39012 10338 ft 300 kts 167°
2026-05-04 15:59 -4.09739 -38.38603 10554 ft 326 kts 167°
2026-05-04 15:59 -4.12046 -38.38158 10732 ft 349 kts 167°
2026-05-04 16:00 -4.14502 -38.37683 10938 ft 368 kts 167°
2026-05-04 16:00 -4.17048 -38.37192 11430 ft 376 kts 167°
2026-05-04 16:00 -4.19598 -38.36700 12071 ft 379 kts 167°
2026-05-04 16:00 -4.22202 -38.36198 12735 ft 383 kts 167°
2026-05-04 16:01 -4.24828 -38.35689 13374 ft 386 kts 167°
2026-05-04 16:01 -4.27489 -38.35173 13990 ft 390 kts 167°
2026-05-04 16:01 -4.30167 -38.34654 14594 ft 394 kts 167°
2026-05-04 16:01 -4.32866 -38.34130 15179 ft 397 kts 167°
2026-05-04 16:02 -4.35595 -38.33600 15766 ft 401 kts 167°
2026-05-04 16:02 -4.38356 -38.33064 16328 ft 405 kts 167°
2026-05-04 16:02 -4.43942 -38.31979 17420 ft 413 kts 167°
2026-05-04 16:03 -4.46739 -38.31436 17957 ft 416 kts 167°
2026-05-04 16:03 -4.49595 -38.30881 18444 ft 420 kts 167°
2026-05-04 16:03 -4.52449 -38.30224 18885 ft 421 kts 158°
2026-05-04 16:03 -4.54997 -38.28796 19302 ft 419 kts 140°
2026-05-04 16:04 -4.57262 -38.26950 19790 ft 421 kts 139°
2026-05-04 16:04 -4.61788 -38.23149 20624 ft 428 kts 139°
2026-05-04 16:04 -4.64080 -38.21229 21018 ft 431 kts 139°
2026-05-04 16:05 -4.66402 -38.19296 21405 ft 434 kts 139°
2026-05-04 16:05 -4.68736 -38.17363 21809 ft 436 kts 139°
2026-05-04 16:05 -4.73417 -38.13505 22556 ft 441 kts 139°
2026-05-04 16:06 -4.75800 -38.11545 22901 ft 443 kts 139°
2026-05-04 16:06 -4.82242 -38.06251 23748 ft 450 kts 139°
2026-05-04 16:07 -4.85455 -38.03608 24129 ft 452 kts 139°
2026-05-04 16:07 -4.92793 -37.97572 24956 ft 457 kts 140°
2026-05-04 16:08 -4.94423 -37.96231 25080 ft 460 kts 139°
2026-05-04 16:08 -5.01895 -37.90082 25856 ft 465 kts 140°
2026-05-04 16:09 -5.06926 -37.85941 26258 ft 470 kts 140°
2026-05-04 16:09 -5.12013 -37.81753 26691 ft 474 kts 140°
2026-05-04 16:10 -5.17137 -37.77534 27135 ft 478 kts 141°
2026-05-04 16:11 -5.24854 -37.71177 27740 ft 483 kts 141°
2026-05-04 16:11 -5.27455 -37.69034 27931 ft 485 kts 141°
2026-05-04 16:12 -5.35327 -37.62547 28481 ft 490 kts 141°
2026-05-04 16:12 -5.43262 -37.56003 29094 ft 492 kts 142°
2026-05-04 16:13 -5.48526 -37.51661 29775 ft 488 kts 142°
2026-05-04 16:13 -5.53778 -37.47329 30237 ft 489 kts 142°
2026-05-04 16:14 -5.59000 -37.43020 30734 ft 488 kts 142°
2026-05-04 16:14 -5.64237 -37.38698 31289 ft 487 kts 142°
2026-05-04 16:15 -5.72088 -37.32215 32132 ft 486 kts 142°
2026-05-04 16:16 -5.77309 -37.27904 32722 ft 485 kts 142°
2026-05-04 16:16 -5.85104 -37.21471 33630 ft 484 kts 142°
2026-05-04 16:17 -5.90301 -37.17180 34231 ft 483 kts 142°
2026-05-04 16:18 -5.98075 -37.10758 34941 ft 484 kts 143°
2026-05-04 16:18 -6.00675 -37.08610 34950 ft 484 kts 143°
2026-05-04 16:19 -6.13560 -36.97956 34961 ft 478 kts 143°
2026-05-04 16:20 -6.26352 -36.87375 34957 ft 478 kts 143°
2026-05-04 16:22 -6.39234 -36.76710 34962 ft 481 kts 143°
2026-05-04 16:23 -6.54755 -36.63822 34970 ft 483 kts 142°
2026-05-04 16:25 -6.70255 -36.50923 34974 ft 483 kts 143°
2026-05-04 16:26 -6.88386 -36.35878 34985 ft 482 kts 143°
2026-05-04 16:28 -7.01228 -36.25057 34991 ft 482 kts 142°
2026-05-04 16:29 -7.19262 -36.09812 33399 ft 488 kts 142°
2026-05-04 16:30 -7.27033 -36.03238 30864 ft 490 kts 142°
2026-05-04 16:31 -7.32273 -35.98806 28801 ft 493 kts 142°
2026-05-04 16:31 -7.40154 -35.92136 25647 ft 490 kts 139°
2026-05-04 16:32 -7.47831 -35.85635 23164 ft 472 kts 138°
2026-05-04 16:33 -7.52789 -35.81434 21481 ft 459 kts 138°
2026-05-04 16:33 -7.57582 -35.77371 19906 ft 446 kts 138°
2026-05-04 16:34 -7.62213 -35.73445 18394 ft 435 kts 138°
2026-05-04 16:34 -7.64507 -35.71498 17556 ft 431 kts 138°
2026-05-04 16:35 -7.70964 -35.65517 15297 ft 411 kts 120°
2026-05-04 16:35 -7.72298 -35.57438 13465 ft 387 kts 84°
2026-05-04 16:36 -7.72034 -35.54745 12730 ft 384 kts 83°
2026-05-04 16:36 -7.71506 -35.49437 11373 ft 377 kts 84°
2026-05-04 16:37 -7.71053 -35.44385 10896 ft 347 kts 84°
2026-05-04 16:37 -7.70848 -35.42014 10745 ft 332 kts 84°
2026-05-04 16:37 -7.70463 -35.37560 10486 ft 306 kts 84°
2026-05-04 16:38 -7.70107 -35.33446 10263 ft 284 kts 84°
2026-05-04 16:39 -7.69624 -35.27912 9931 ft 242 kts 84°
2026-05-04 16:39 -7.69348 -35.24750 9713 ft 212 kts 84°
2026-05-04 16:40 -7.69097 -35.21878 9077 ft 208 kts 85°
2026-05-04 16:40 -7.68848 -35.19028 8526 ft 199 kts 87°
2026-05-04 16:41 -7.68625 -35.16480 8096 ft 190 kts 86°
2026-05-04 16:41 -7.68286 -35.12598 7509 ft 189 kts 88°
2026-05-04 16:42 -7.67949 -35.08736 6916 ft 192 kts 89°
2026-05-04 16:43 -7.69168 -35.06712 6592 ft 178 kts 160°
2026-05-04 16:43 -7.71500 -35.05923 6226 ft 172 kts 160°
2026-05-04 16:43 -7.72626 -35.05539 6007 ft 169 kts 161°
2026-05-04 16:44 -7.76933 -35.04107 5287 ft 160 kts 161°
2026-05-04 16:45 -7.79025 -35.03415 4925 ft 157 kts 162°
2026-05-04 16:46 -7.82022 -35.02426 4399 ft 154 kts 161°
2026-05-04 16:46 -7.84118 -35.01733 4032 ft 158 kts 162°
2026-05-04 16:47 -7.86006 -35.01109 3833 ft 134 kts 162°
2026-05-04 16:47 -7.87793 -35.00520 3727 ft 137 kts 162°
2026-05-04 16:48 -7.90513 -34.99622 3527 ft 135 kts 162°
2026-05-04 16:48 -7.91397 -34.99330 3488 ft 136 kts 162°
2026-05-04 16:49 -7.93174 -34.98743 3405 ft 130 kts 163°
2026-05-04 16:49 -7.94864 -34.98186 3193 ft 125 kts 163°
2026-05-04 16:50 -7.96513 -34.97641 2963 ft 126 kts 163°
2026-05-04 16:50 -7.98146 -34.97102 2681 ft 122 kts 161°
2026-05-04 16:51 -7.99761 -34.96569 2459 ft 123 kts 161°
2026-05-04 16:51 -8.00565 -34.96303 2331 ft 121 kts 162°
2026-05-04 16:51 -8.02171 -34.95774 2008 ft 122 kts 162°
2026-05-04 16:52 -8.03757 -34.95250 1678 ft 121 kts 163°
2026-05-04 16:52 -8.04562 -34.94984 1520 ft 123 kts 162°
2026-05-04 16:53 -8.06173 -34.94452 1201 ft 122 kts 161°
2026-05-04 16:53 -8.08564 -34.93676 796 ft 120 kts 160°
2026-05-04 16:54 -8.09365 -34.93407 670 ft 124 kts 160°
2026-05-04 16:55 -8.12396 -34.92397 46 ft 72 kts 162°
2026-05-04 16:55 -8.13014 -34.92192 47 ft 22 kts 163°
2026-05-04 16:56 -8.13239 -34.92074 42 ft 6 kts 131°
2026-05-04 16:56 -8.13324 -34.91981 43 ft 7 kts 133°
2026-05-04 16:57 -8.13370 -34.91933 44 ft 7 kts 140°
2026-05-04 16:57 -8.13443 -34.91901 41 ft 7 kts 162°
2026-05-04 16:58 -8.13548 -34.91853 44 ft 3 kts 101°
2026-05-04 16:58 -8.13546 -34.91830 44 ft 3 kts 78°
2026-05-04 16:59 -8.13537 -34.91804 45 ft 0 kts 71°